Regional Weather Roundup
Issued by NWS Cleveland, OH

Home | Current Version | Previous Version | Graphics & Text | Print | Product List | Glossary On
Versions: 1 2 3 4 5 6 7 8 9 10 11 12 13 14 15 16 17 18 19 20 21 22 23 24 25 26 27 28 29 30 31 32 33 34 35 36 37 38 39 40 41 42 43 44 45 46 47 48 49 50
000
ASUS41 KCLE 230012
RWRCLE
OHIO REGIONAL WEATHER ROUNDUP
NATIONAL WEATHER SERVICE WILMINGTON, OH
800 PM EDT SUN APR 22 2018

NOTE: "FAIR" INDICATES FEW OR NO CLOUDS BELOW 12,000 FEET WITH NO
SIGNIFICANT WEATHER AND/OR OBSTRUCTIONS TO VISIBILITY.

OHZ001>008-015>018-024>027-034-035-043-044-230100-
   NORTHWEST OHIO

CITY           SKY/WX    TMP DP  RH WIND       PRES   REMARKS
DEFIANCE       FAIR      54  22  28 E9        30.28F
FINDLAY        FAIR      55  20  25 NE17G23   30.26S
TOLEDO EXPRESS FAIR      54  21  27 E17G24    30.30S
TOLEDO EXEC    FAIR      51  25  36 E8        30.31F
LIMA           FAIR      54  28  36 NE14      30.24S
$$

OHZ009>014-019>023-028>033-038-089-230100-
   NORTHEAST OHIO

CITY           SKY/WX    TMP DP  RH WIND       PRES   REMARKS
CLE-HOPKINS    FAIR      53  27  36 NE13      30.30F
CLE-LAKEFRONT  FAIR      46  36  68 NE13      30.27F
CUY CO. ARPT   PTCLDY    55  25  30 NE14      30.30S
LORAIN-ELYRIA  FAIR      51  20  29 NE17      30.28F
ASHTABULA      FAIR      54  20  26 NE7       30.31S
AKRON-CANTON   FAIR      60  22  23 E7        30.25F
WOOSTER        FAIR      54  32  43 N9        30.25F
MANSFIELD      FAIR      54  26  34 NE12      30.25F
YOUNGSTOWN     MOCLDY    57  27  31 NE12      30.27R
$$

OHZ042-051>053-060>062-070>072-077>081-230100-
  SOUTHWEST OHIO

CITY           SKY/WX    TMP DP  RH WIND       PRES   REMARKS
CINC-COVINGTON MOCLDY    63  28  26 E10       30.16S
CINC-LUNKEN    FAIR      61  34  36 NE5       30.17F
HAMILTON       FAIR      61  32  33 E8        30.18S
DAYTON         MOCLDY    60  30  32 E9        30.21S
WRIGHT-PAT AFB FAIR      61  28  28 NE9       30.20S
DAYTON GENERAL FAIR      63  30  28 NE12      30.18S
WILMINGTON     FAIR      59  35  40 NE12      30.18F
$$

OHZ036-037-039>041-045>050-054>059-063>069-073>076-082>088-230100-
  CENTRAL AND SOUTHEAST OHIO

CITY           SKY/WX    TMP DP  RH WIND       PRES   REMARKS
COLUMBUS       MOCLDY    63  26  24 NE8       30.21S
OSU AIRPORT    FAIR      60  27  28 NE7       30.21S
BOLTON FIELD   NOT AVBL
RICKENBACK AFB FAIR      61  30  30 NE5       30.21R
NEWARK         FAIR      64  27  24 NE5       30.20F
MARION         FAIR      56  30  37 NE14      30.24S
LANCASTER      FAIR      58  39  49 NE7       30.21S
ZANESVILLE     NOT AVBL
NEW PHILLY     FAIR      65  26  23 NE6       30.24R
$$




USA.gov is the U.S. government's official web portal to all federal, state and local government web resources and services.